Idaho Falls, ID

5:53 PM MDT on May 26, 2017 (GMT -0600)
Fanning

Weather History for KIDA - May, 2013

Change the Weather History Date:

Thursday, May 2, 2013

  Actual Average Record
Temperature  
Mean Temperature 39 °F 49 °F  
Max Temperature 60 °F 63 °F 84 °F (1985)
Min Temperature 18 °F 35 °F 18 °F (2013)
Degree Days  
Heating Degree Days 26 16  
Month to date heating degree days 52 32  
Since 1 July heating degree days 7161 7345  
Cooling Degree Days 0 0  
Month to date cooling degree days 0 0  
Year to date cooling degree days 0 0  
Moisture  
Dew Point 9 °F    
Average Humidity 39    
Maximum Humidity 68    
Minimum Humidity 9    
Precipitation  
Precipitation 0.00 in 0.05 in 0.19 in (1983)
Month to date precipitation 0.00 0.10  
Year to date precipitation 1.38 3.45  
Sea Level Pressure  
Sea Level Pressure 30.57 in    
Wind  
Wind Speed 4 mph (SW)    
Max Wind Speed 13 mph    
Max Gust Speed 20 mph    
Visibility 10 miles    
Events      
T = Trace of Precipitation, MM = Missing Value Source: NWS Daily Summary

Daily Weather History Graph

Daily Weather History Graph

Search for Another Location

Airport or City:

Trip Planner

Search our weather history database for the weather conditions in past years. The results will help you decide how hot, cold, wet, or windy it might be!

Date:

Astronomy

May. 02, 2013 Rise Set
Actual Time 6:19 AM MDT 8:32 PM MDT
Civil Twilight 5:47 AM MDT 9:03 PM MDT
Nautical Twilight 5:08 AM MDT 9:42 PM MDT
Astronomical Twilight 4:25 AM MDT 10:26 PM MDT
Moon 2:22 AM MDT (5/2) 1:12 PM MDT (5/2)
Length of Visible Light 15h 15m
Length of Day
14h 12m
Waning Gibbous, 47% of the Moon is Illuminated
May 2
Waning Gibbous
May 9
New
May 17
First Quarter
May 24
Full
May 31
Last Quarter

Hourly Weather History & Observations

Time (MDT) Temp. Windchill Dew Point Humidity Pressure Visibility Wind Dir Wind Speed Gust Speed Precip Events Conditions
12:53 AM 30.0 °F - 10.0 °F 43% 30.63 in 10.0 mi Calm Calm - N/A   Clear
1:53 AM 30.9 °F 27.5 °F 15.1 °F 52% 30.63 in 10.0 mi SE 3.5 mph - N/A   Clear
2:53 AM 25.0 °F 20.7 °F 10.0 °F 53% 30.66 in 10.0 mi NNE 3.5 mph - N/A   Clear
3:53 AM 21.9 °F 17.2 °F 9.0 °F 58% 30.67 in 10.0 mi North 3.5 mph - N/A   Clear
4:53 AM 19.9 °F 14.9 °F 8.1 °F 60% 30.69 in 10.0 mi North 3.5 mph - N/A   Clear
5:53 AM 19.0 °F 11.1 °F 9.0 °F 65% 30.70 in 10.0 mi NNW 5.8 mph - N/A   Clear
6:53 AM 21.9 °F 15.7 °F 12.0 °F 66% 30.70 in 10.0 mi North 4.6 mph - N/A   Clear
7:53 AM 30.0 °F 26.5 °F 16.0 °F 56% 30.68 in 10.0 mi NNE 3.5 mph - N/A   Clear
8:53 AM 37.9 °F - 17.1 °F 43% 30.69 in 10.0 mi Calm Calm - N/A   Clear
9:53 AM 43.0 °F 41.3 °F 12.9 °F 30% 30.68 in 10.0 mi South 3.5 mph - N/A   Clear
10:53 AM 46.9 °F - 12.9 °F 25% 30.66 in 10.0 mi SSW 3.5 mph - N/A   Clear
11:53 AM 51.1 °F - 9.0 °F 18% 30.64 in 10.0 mi Variable 4.6 mph - N/A   Clear
12:53 PM 54.0 °F - 10.0 °F 17% 30.61 in 10.0 mi SW 6.9 mph - N/A   Clear
1:53 PM 55.0 °F - 7.0 °F 15% 30.58 in 10.0 mi WSW 5.8 mph - N/A   Clear
2:53 PM 57.0 °F - 3.0 °F 11% 30.56 in 10.0 mi Variable 4.6 mph - N/A   Clear
3:53 PM 57.9 °F - 3.9 °F 11% 30.54 in 10.0 mi Calm Calm - N/A   Clear
4:53 PM 57.9 °F - 3.0 °F 11% 30.51 in 10.0 mi West 5.8 mph - N/A   Clear
5:53 PM 59.0 °F - 3.9 °F 11% 30.49 in 10.0 mi SSW 5.8 mph - N/A   Clear
6:53 PM 60.1 °F - 1.0 °F 9% 30.45 in 10.0 mi WSW 9.2 mph - N/A   Clear
7:53 PM 57.0 °F - 6.1 °F 13% 30.41 in 10.0 mi SSW 5.8 mph - N/A   Clear
8:53 PM 55.0 °F - 5.0 °F 13% 30.38 in 10.0 mi South 4.6 mph - N/A   Clear
9:53 PM 51.1 °F - 10.0 °F 19% 30.37 in 10.0 mi SE 5.8 mph - N/A   Clear
10:53 PM 46.9 °F - 15.1 °F 28% 30.37 in 10.0 mi SE 4.6 mph - N/A   Clear
11:53 PM 35.1 °F - 15.1 °F 44% 30.38 in 10.0 mi Calm Calm - N/A   Clear